Location: Sungai Anya
(2.6167°N, 114.0500°E)
Time: 11:57:54
(UTC+00:00)

NOSS 2-2 (E) - Pass Details

Date: 19 October 2021
Orbit: 448 x 1756 km, 63.3° (Epoch: 27 November)

Event Time Altitude Azimuth Distance (km) Brightness Sun altitude
Rises 11:33:50 0° 213° (SSW) 3,272 7.9 -21.4°
Reaches altitude 10° 11:36:38 10° 218° (SW) 2,143 7.0 -22.1°
Maximum altitude 11:41:06 45° 291° (WNW) 780 4.4 -23.2°
Enters shadow 11:42:38 29° 345° (NNW) 996 4.6 -23.6°
